Hourly Weather Chiquimula

Today, 25 October, Sunday

Time Temperature Precipitation Wind Pressure Humidity
00:00 +23°C° 0.5 mm 1 mps 707 mmHg 97%
01:00 +22°C° 0.1 mm 1 mps 706 mmHg 97%
02:00 +22°C° 0.1 mm 1 mps 706 mmHg 97%
03:00 +20°C° 0.1 mm 0 mps 706 mmHg 98%
04:00 +20°C° 0 mm 0 mps 706 mmHg 98%
05:00 +20°C° 0 mm 0 mps 706 mmHg 98%
06:00 +20°C° 0 mm 0 mps 707 mmHg 98%
07:00 +24°C° 0.1 mm 1 mps 707 mmHg 94%
08:00 +25°C° 0.1 mm 1 mps 708 mmHg 91%
09:00 +26°C° 0.1 mm 1 mps 708 mmHg 87%
10:00 +27°C° 0.5 mm 1 mps 708 mmHg 84%
11:00 +28°C° 0.5 mm 1 mps 707 mmHg 81%
12:00 +29°C° 0.5 mm 2 mps 707 mmHg 78%
13:00 +29°C° 0.9 mm 2 mps 706 mmHg 80%
14:00 +28°C° 0.9 mm 2 mps 706 mmHg 82%
15:00 +28°C° 0.9 mm 2 mps 705 mmHg 83%
16:00 +27°C° 0.4 mm 2 mps 705 mmHg 87%
17:00 +26°C° 0.4 mm 1 mps 705 mmHg 92%
18:00 +24°C° 0.4 mm 1 mps 706 mmHg 96%
19:00 +24°C° 0.3 mm 1 mps 706 mmHg 96%
20:00 +24°C° 0.3 mm 1 mps 707 mmHg 96%
21:00 +24°C° 0.3 mm 1 mps 707 mmHg 96%
22:00 +23°C° 0.1 mm 1 mps 707 mmHg 96%
23:00 +21°C° 0.1 mm 0 mps 707 mmHg 96%

Tomorrow, 26 October, Monday

Time Temperature Precipitation Wind Pressure Humidity
00:00 +21°C° 0.1 mm 0 mps 706 mmHg 96%
01:00 +21°C° 0 mm 0 mps 706 mmHg 96%
02:00 +20°C° 0 mm 0 mps 706 mmHg 96%
03:00 +20°C° 0 mm 0 mps 705 mmHg 96%
04:00 +20°C° 0 mm 0 mps 706 mmHg 96%
05:00 +20°C° 0 mm 0 mps 706 mmHg 96%
06:00 +20°C° 0 mm 0 mps 706 mmHg 97%
07:00 +23°C° 0 mm 1 mps 707 mmHg 92%
08:00 +25°C° 0 mm 1 mps 707 mmHg 87%
09:00 +27°C° 0 mm 1 mps 708 mmHg 81%
10:00 +28°C° 0 mm 1 mps 707 mmHg 77%
11:00 +29°C° 0 mm 1 mps 707 mmHg 73%
12:00 +30°C° 0 mm 1 mps 707 mmHg 69%
13:00 +30°C° 0.4 mm 1 mps 706 mmHg 70%
14:00 +30°C° 0.4 mm 1 mps 705 mmHg 71%
15:00 +30°C° 0.4 mm 1 mps 705 mmHg 72%
16:00 +28°C° 1.4 mm 1 mps 705 mmHg 78%
17:00 +27°C° 1.4 mm 1 mps 705 mmHg 85%
18:00 +25°C° 1.4 mm 1 mps 706 mmHg 92%
19:00 +23°C° 1 mm 0 mps 706 mmHg 94%
20:00 +22°C° 1 mm 0 mps 706 mmHg 95%
21:00 +22°C° 1 mm 0 mps 707 mmHg 96%
22:00 +22°C° 0.3 mm 0 mps 707 mmHg 96%
23:00 +22°C° 0.3 mm 0 mps 706 mmHg 96%

Day after tomorrow, 27 October, Tuesday

Time Temperature Precipitation Wind Pressure Humidity
00:00 +21°C° 0.3 mm 0 mps 706 mmHg 96%
01:00 +21°C° 0.5 mm 0 mps 706 mmHg 97%
02:00 +21°C° 0.5 mm 0 mps 706 mmHg 97%
03:00 +21°C° 0.5 mm 0 mps 706 mmHg 97%
04:00 +21°C° 0.2 mm 0 mps 706 mmHg 97%
05:00 +21°C° 0.2 mm 0 mps 706 mmHg 97%
06:00 +21°C° 0.2 mm 0 mps 706 mmHg 97%
07:00 +22°C° 0 mm 0 mps 706 mmHg 94%
08:00 +23°C° 0 mm 0 mps 707 mmHg 90%
09:00 +25°C° 0 mm 0 mps 707 mmHg 87%
10:00 +26°C° 0.1 mm 0 mps 707 mmHg 81%
11:00 +29°C° 0.1 mm 1 mps 706 mmHg 76%
12:00 +30°C° 0.1 mm 1 mps 706 mmHg 70%
13:00 +30°C° 0.8 mm 1 mps 705 mmHg 73%
14:00 +29°C° 0.8 mm 1 mps 705 mmHg 76%
15:00 +27°C° 0.8 mm 0 mps 704 mmHg 79%
16:00 +25°C° 3.6 mm 0 mps 704 mmHg 85%
17:00 +24°C° 3.6 mm 0 mps 705 mmHg 91%
18:00 +22°C° 3.6 mm 0 mps 705 mmHg 97%
19:00 +22°C° 1.6 mm 0 mps 705 mmHg 98%
20:00 +22°C° 1.6 mm 0 mps 706 mmHg 98%
21:00 +22°C° 1.6 mm 0 mps 706 mmHg 98%
22:00 +22°C° 1 mm 0 mps 706 mmHg 98%
23:00 +21°C° 1 mm 0 mps 706 mmHg 98%

28 October, Wednesday

Time Temperature Precipitation Wind Pressure Humidity
00:00 +21°C° 1 mm 0 mps 706 mmHg 98%
01:00 +21°C° 0.6 mm 0 mps 706 mmHg 98%
02:00 +21°C° 0.6 mm 0 mps 706 mmHg 98%
03:00 +21°C° 0.6 mm 0 mps 705 mmHg 98%
04:00 +21°C° 0.3 mm 0 mps 705 mmHg 98%
05:00 +21°C° 0.3 mm 0 mps 706 mmHg 98%
06:00 +21°C° 0.3 mm 0 mps 706 mmHg 98%
07:00 +22°C° 0.1 mm 0 mps 706 mmHg 95%
08:00 +23°C° 0.1 mm 0 mps 707 mmHg 92%
09:00 +24°C° 0.1 mm 0 mps 707 mmHg 89%
10:00 +27°C° 0.1 mm 1 mps 707 mmHg 84%
11:00 +28°C° 0.1 mm 1 mps 707 mmHg 80%
12:00 +29°C° 0.1 mm 1 mps 706 mmHg 75%
13:00 +29°C° 0.6 mm 1 mps 705 mmHg 78%
14:00 +28°C° 0.6 mm 1 mps 705 mmHg 80%
15:00 +28°C° 0.6 mm 1 mps 704 mmHg 83%
16:00 +27°C° 2.4 mm 1 mps 704 mmHg 87%
17:00 +25°C° 2.4 mm 1 mps 705 mmHg 92%
18:00 +22°C° 2.4 mm 0 mps 705 mmHg 97%
19:00 +22°C° 2.1 mm 0 mps 705 mmHg 97%
20:00 +22°C° 2.1 mm 0 mps 706 mmHg 98%
21:00 +21°C° 2.1 mm 0 mps 706 mmHg 98%
22:00 +21°C° 2.2 mm 0 mps 706 mmHg 98%
23:00 +21°C° 2.2 mm 0 mps 706 mmHg 98%

29 October, Thursday

Time Temperature Precipitation Wind Pressure Humidity
00:00 +21°C° 2.2 mm 0 mps 706 mmHg 98%
01:00 +21°C° 4.4 mm 0 mps 706 mmHg 99%
02:00 +23°C° 4.4 mm 1 mps 706 mmHg 99%
03:00 +23°C° 4.4 mm 1 mps 705 mmHg 99%
04:00 +23°C° 0.8 mm 1 mps 706 mmHg 99%
05:00 +23°C° 0.8 mm 1 mps 706 mmHg 99%
06:00 +22°C° 0.8 mm 1 mps 706 mmHg 99%
07:00 +23°C° 0.1 mm 1 mps 707 mmHg 97%
08:00 +24°C° 0.1 mm 1 mps 707 mmHg 95%
09:00 +25°C° 0.1 mm 1 mps 708 mmHg 93%
10:00 +26°C° 0.3 mm 1 mps 708 mmHg 90%
11:00 +26°C° 0.3 mm 2 mps 707 mmHg 86%
12:00 +27°C° 0.3 mm 2 mps 707 mmHg 83%
13:00 +27°C° 0.9 mm 2 mps 707 mmHg 84%
14:00 +27°C° 0.9 mm 2 mps 706 mmHg 86%
15:00 +27°C° 0.9 mm 2 mps 706 mmHg 87%
16:00 +26°C° 0.4 mm 2 mps 706 mmHg 91%
17:00 +24°C° 0.4 mm 2 mps 706 mmHg 94%
18:00 +23°C° 0.4 mm 1 mps 707 mmHg 97%
19:00 +23°C° 0.1 mm 1 mps 707 mmHg 97%
20:00 +22°C° 0.1 mm 1 mps 708 mmHg 98%
21:00 +22°C° 0.1 mm 1 mps 708 mmHg 98%
22:00 +22°C° 0 mm 1 mps 708 mmHg 98%
23:00 +22°C° 0 mm 1 mps 708 mmHg 98%

30 October, Friday

Time Temperature Precipitation Wind Pressure Humidity
00:00 +22°C° 0 mm 1 mps 708 mmHg 98%
01:00 +21°C° 0 mm 1 mps 708 mmHg 98%
02:00 +21°C° 0 mm 1 mps 707 mmHg 98%
03:00 +21°C° 0 mm 1 mps 707 mmHg 98%
04:00 +21°C° 0 mm 1 mps 707 mmHg 98%
05:00 +21°C° 0 mm 1 mps 707 mmHg 98%
06:00 +21°C° 0 mm 1 mps 708 mmHg 98%
07:00 +22°C° 0 mm 1 mps 708 mmHg 95%
08:00 +23°C° 0 mm 1 mps 709 mmHg 92%
09:00 +25°C° 0 mm 1 mps 709 mmHg 89%
10:00 +26°C° 0.3 mm 1 mps 709 mmHg 85%
11:00 +27°C° 0.3 mm 2 mps 709 mmHg 81%
12:00 +28°C° 0.3 mm 2 mps 708 mmHg 77%
13:00 +28°C° 0.7 mm 2 mps 708 mmHg 79%
14:00 +27°C° 0.7 mm 2 mps 707 mmHg 82%
15:00 +27°C° 0.7 mm 2 mps 707 mmHg 84%
16:00 +26°C° 0.4 mm 2 mps 707 mmHg 88%
17:00 +24°C° 0.4 mm 2 mps 708 mmHg 92%
18:00 +23°C° 0.4 mm 2 mps 708 mmHg 97%
19:00 +23°C° 0.1 mm 2 mps 709 mmHg 97%
20:00 +21°C° 0.1 mm 2 mps 709 mmHg 97%
21:00 +22°C° 0.1 mm 1 mps 710 mmHg 97%
22:00 +21°C° 0 mm 2 mps 710 mmHg 97%
23:00 +21°C° 0 mm 2 mps 710 mmHg 97%
Show more

We Need Your Consent

Meteoprog and our Service Providers may store and access personal data such as cookies, device identifiers or other similar technologies on your device and process such data to personalise content and ads, as well as provide social media features and to analyse the traffic.

  • Store and/or access information on your device

    Cookies, device identifiers or other information can be stored or accessed on your device for the purposes indicated above.

  • Personalised ads and content, ad and content measurement, audience insights, and products development

    Ads and content can be personalised based on a profile. More data can be added to better personalise ads and content. Ad and content performance can be measured. Insights about the audience who saw the ads and content can be derived. Such data can be used to develop or improve user’s experience, systems and software.

By clicking ‘I Agree’ you will allow the use of indicated cookies, device identifiers, web beacons or other similar technologies. Your settings can be changed in the browser on your device.

For certain purposes, legitimate interests may be relied on, rather than consent. You can read more about this in our Privacy and Cookie Policy.